Regional Weather Roundup
Issued by NWS

Home | Current Version | Previous Version | Text Only | Print | Product List | Glossary Off
Versions: 1 2 3 4 5 6 7 8 9 10 11 12 13 14 15 16 17 18 19 20 21 22 23 24 25 26 27 28 29 30 31 32 33 34 35 36 37 38 39 40 41 42 43 44 45 46 47 48 49 50

000
ASUS43 KFSD 270910
RWRSD

WEATHER ROUNDUP FOR SOUTH DAKOTA
NATIONAL WEATHER SERVICE SIOUX FALLS SD
400 AM CDT TUE JUN 27 2017

NOTE: "FAIR" INDICATES FEW OR NO CLOUDS BELOW 12,000 FEET WITH NO
SIGNIFICANT WEATHER AND/OR OBSTRUCTIONS TO VISIBILITY.


SDZ001>005-009-010-012>017-271000-
NORTHWEST AND NORTH CENTRAL SOUTH DAKOTA

CITY           SKY/WX    TMP DP  RH WIND       PRES   REMARKS
BUFFALO          N/A     59  40  49 S9        29.77F
FAITH            N/A     58  40  51 S22G30    29.89F
MOBRIDGE       CLEAR     60  39  45 SE14      29.94F
$$

SDZ012>016-024>037-041>051-057-063-072>074-271000-
SOUTHWEST AND SOUTH CENTRAL SOUTH DAKOTA

CITY           SKY/WX    TMP DP  RH WIND       PRES   REMARKS
RAPID CTY ARPT PTCLDY    62  41  46 S15       29.90F
PIERRE         PTCLDY    55  40  56 SE12      29.98F
CUSTER         CLOUDY    55  42  61 SW8       30.03F
ELLSWORTH AFB  CLEAR     62  41  45 S18G24    29.88F
PHILIP         MOCLDY    57  42  57 E5        29.93F
PINE RIDGE     CLEAR     63  47  55 S31G39    29.93F
SPEARFISH      FAIR      73  50  43 S24G33    29.81F
WINNER         FAIR      59  42  53 S15       30.02F
$$

SDZ004>011-016>023-039-040-271000-
NORTHEAST SOUTH DAKOTA

CITY           SKY/WX    TMP DP  RH WIND       PRES   REMARKS
ABERDEEN       CLEAR     45  41  86 S9        30.03F
WATERTOWN      CLEAR     49  40  71 S6        30.07F
BROOKINGS      CLEAR     48  41  76 SE7       30.10F
SISSETON         N/A     49  41  74 S9        30.03F
$$

SDZ017-020-022-023-036>040-048>070-271000-
SOUTHEAST SOUTH DAKOTA

CITY           SKY/WX    TMP DP  RH WIND       PRES   REMARKS
SIOUX FALLS    CLEAR     53  43  68 S9        30.10F
HURON          CLEAR     51  42  71 S9        30.05F
CHAMBERLAIN    CLEAR     53  45  74 SE8       30.03F
MITCHELL       CLEAR     53  43  68 S10       30.07F
YANKTON        CLEAR     50  43  77 CALM      30.11S
$$

ABBREVIATIONS USED IN REMARKS
   TC - TEMPERATURE IN CELSIUS
  WCI - WIND CHILL INDEX
   HX - HEAT INDEX
  VSB - VISIBILITY




USA.gov is the U.S. government's official web portal to all federal, state and local government web resources and services.